Theta_e
343 345 348 352 355 355 355 355 355 354 354 354 353 353 352 352 351 350 350 349 350 351 351 350 350 351 351 351 351 350 351 351 350 351 350 349 349 348 348 348 348 348 347 347 346 347 347 346 345 344 343 342 341 343 344 343 343 343 345 346 346 346 346 345 345 347 346 347 349 350 350 350 351 350 350 351 349 349 348 348 348 346 345 347 349
343 346 348 351 354 355 354 355 355 355 354 353 353 353 352 351 351 350 350 349 350 351 351 350 350 350 350 350 350 350 350 350 350 350 349 348 348 348 347 347 347 347 347 347 347 347 346 345 345 344 343 342 341 340 341 342 343 341 341 343 345 345 345 345 345 345 345 344 346 346 348 349 349 349 348 348 348 348 347 347 347 344 343 349 349
345 346 348 351 353 354 354 353 355 354 354 354 353 352 352 351 350 350 349 349 349 350 350 350 350 350 349 349 349 349 349 349 350 350 349 348 348 347 347 347 347 347 347 347 346 346 345 344 344 343 341 340 339 338 339 341 341 341 341 341 343 343 343 343 344 344 345 344 343 344 345 346 346 348 348 347 347 347 346 346 346 345 345 348 348
344 346 348 350 350 353 354 353 353 353 352 352 352 352 351 351 350 350 349 349 348 349 349 348 348 348 348 348 348 348 349 349 349 348 348 347 347 346 346 346 346 346 345 347 346 345 344 343 342 340 338 337 337 337 337 339 340 340 340 342 341 340 340 342 342 343 344 343 344 343 343 340 342 345 345 348 347 347 344 344 345 346 347 346 348
345 347 348 349 350 350 352 353 352 353 352 352 351 351 351 351 350 349 349 349 348 348 348 348 347 347 347 348 348 348 348 348 349 348 347 347 347 347 346 346 346 345 345 346 345 343 342 342 340 339 336 335 335 336 336 337 339 340 340 341 341 339 338 340 341 343 343 343 343 341 340 339 340 345 347 347 347 345 345 344 342 343 344 344 345
346 347 348 349 349 349 350 353 352 352 352 352 351 351 351 350 350 349 349 348 348 348 347 347 347 347 347 347 348 347 347 347 348 348 347 347 347 346 345 345 346 345 346 346 345 342 341 340 339 337 335 333 333 335 336 338 338 338 339 341 339 338 337 340 341 342 342 340 341 339 339 339 340 341 346 346 345 343 344 345 344 343 342 342 344
347 347 348 349 349 347 347 352 352 352 352 351 351 351 350 350 350 349 349 348 348 348 347 347 347 346 346 346 346 346 346 347 347 348 347 347 346 345 345 345 345 345 346 345 343 341 340 338 337 335 333 331 332 334 336 337 337 338 338 338 337 336 338 340 340 341 342 334 334 338 338 339 339 339 343 343 342 341 340 342 343 343 342 341 343
346 347 348 348 348 346 348 352 352 352 351 351 351 350 349 349 350 350 349 348 347 347 347 346 346 346 345 345 346 346 346 347 347 347 347 346 345 344 344 344 344 344 344 344 341 340 339 337 335 334 332 330 331 334 335 335 336 336 336 336 336 337 339 340 341 342 340 331 330 336 337 337 337 336 341 341 340 339 337 339 339 340 342 341 339
344 346 347 348 348 345 348 350 352 351 351 350 350 350 350 349 350 350 349 348 347 347 346 345 346 346 345 345 345 345 346 347 347 347 346 346 344 343 343 342 342 342 343 343 341 339 338 336 333 332 332 330 331 334 334 335 335 336 336 338 338 339 340 340 340 339 334 325 331 334 335 335 334 333 339 339 339 338 336 335 337 337 338 338 338
341 344 346 347 347 345 346 351 352 352 351 350 350 350 349 349 350 349 348 347 347 347 346 346 346 346 345 345 345 346 347 346 346 346 345 345 343 342 341 341 341 341 342 343 342 341 337 335 333 331 330 330 331 332 333 333 334 335 336 337 338 338 338 338 338 333 329 330 331 333 335 338 332 332 336 337 338 337 334 332 333 334 332 333 335
339 343 345 346 346 345 349 352 351 351 351 351 350 350 349 348 348 348 347 347 347 347 346 346 346 345 346 346 346 346 346 346 346 345 344 343 342 342 341 341 341 341 341 341 341 339 337 335 332 329 329 329 330 331 332 332 332 334 335 337 337 337 336 337 333 328 326 328 328 328 335 338 331 329 336 337 336 335 334 332 332 334 333 332 333
345 346 345 344 345 345 349 350 351 352 350 350 349 349 349 347 347 348 348 348 347 347 346 346 345 345 347 346 345 344 345 345 346 344 343 343 342 341 341 340 340 340 340 339 338 338 336 334 331 328 327 327 328 330 331 331 332 333 335 335 335 335 334 334 328 325 326 328 328 328 328 329 329 333 336 335 335 335 334 331 332 333 332 333 333
343 344 344 344 344 342 347 350 349 350 351 350 349 350 348 349 349 349 348 348 347 347 346 346 345 345 346 346 345 345 345 342 343 344 343 343 342 341 341 341 341 340 338 338 337 336 335 333 331 328 325 325 326 328 329 330 331 332 333 333 333 333 330 331 326 326 326 328 329 329 329 327 328 336 336 336 334 334 333 330 333 332 333 333 333
340 343 343 344 343 345 343 346 348 350 350 350 350 350 349 349 349 349 348 348 348 347 347 346 345 346 346 345 345 345 343 343 342 343 343 343 342 341 341 341 340 339 338 337 336 335 334 333 330 327 324 323 325 326 326 327 329 331 331 331 330 330 327 326 328 326 327 328 328 329 329 329 329 335 335 335 335 335 331 331 332 332 332 332 332
336 340 342 343 342 342 341 342 345 346 348 349 349 348 349 348 349 349 349 348 348 348 347 347 346 346 346 345 345 344 343 343 342 342 342 342 341 341 341 340 339 338 336 336 335 334 333 332 330 326 322 321 322 324 324 325 327 328 329 329 328 328 326 322 324 323 326 327 327 328 327 329 333 333 333 334 334 334 331 332 332 331 331 331 331
332 333 338 340 340 339 340 340 339 342 343 346 346 347 347 348 348 349 349 348 348 347 348 347 346 346 346 345 345 344 343 342 342 342 341 341 341 341 340 339 338 337 336 335 333 333 332 331 329 325 322 320 320 322 323 323 324 326 327 327 327 328 324 322 321 323 323 324 325 326 327 328 332 332 332 334 334 332 331 331 331 331 331 331 330
331 331 334 336 336 336 338 341 336 334 337 340 341 343 344 346 347 348 348 347 347 348 347 347 346 346 346 346 345 343 341 342 342 342 342 341 341 340 338 338 337 336 336 334 333 332 331 330 327 324 321 319 318 319 321 322 323 324 324 325 326 326 323 321 320 321 322 322 323 324 325 328 331 332 332 334 333 332 331 330 331 331 330 330 330
328 330 330 330 330 336 337 338 342 344 343 338 335 338 341 344 344 344 344 345 345 347 346 346 346 345 344 342 341 339 339 341 341 341 341 340 340 340 339 337 336 336 335 334 333 332 331 329 327 324 322 319 317 317 318 320 322 322 322 324 325 323 320 318 318 319 319 321 320 323 324 334 332 332 332 333 332 331 331 330 330 331 330 328 329
327 329 329 330 330 330 336 337 337 340 341 341 343 340 336 339 341 340 341 342 343 342 342 342 339 339 340 338 337 336 335 335 334 335 337 336 336 334 337 337 336 335 335 334 332 331 330 329 327 324 323 321 318 317 318 319 319 320 321 322 320 318 316 315 316 317 317 316 317 319 323 332 336 331 333 332 332 330 330 330 329 329 329 327 328
324 326 328 328 329 330 330 333 337 337 338 339 341 342 334 333 337 338 338 340 340 339 339 336 332 331 330 330 329 331 329 329 327 331 331 334 332 331 334 337 336 335 334 333 332 331 330 329 328 325 323 321 319 317 317 317 318 318 320 319 315 313 309 310 313 315 313 314 316 316 326 329 335 336 333 331 330 329 328 329 329 329 328 328 326
316 315 317 318 323 326 329 330 331 336 338 339 340 340 337 331 332 332 333 334 334 335 334 326 323 323 324 322 324 332 330 329 330 332 325 330 325 326 332 336 336 335 334 333 332 331 330 329 328 326 322 320 319 317 315 318 317 317 318 314 309 303 305 307 311 311 311 309 312 315 324 326 331 334 336 331 330 328 326 328 328 327 327 326 326
310 312 315 316 316 316 317 319 327 331 334 336 339 342 337 335 338 336 333 332 330 326 330 333 330 332 323 326 334 333 331 329 332 330 332 329 326 324 327 332 335 334 333 334 332 331 330 329 329 327 324 320 318 307 304 310 314 315 312 309 300 300 301 303 307 309 307 306 309 315 320 324 327 333 336 333 330 326 326 328 327 326 327 327 325
309 311 312 314 314 315 316 317 318 326 333 334 338 341 339 339 339 338 335 331 331 333 336 334 335 334 333 333 334 335 333 331 333 331 332 325 328 322 326 330 332 332 331 333 333 331 331 329 329 328 328 324 312 309 306 304 302 308 306 300 296 297 299 300 301 307 305 305 303 315 316 320 324 329 333 333 329 327 329 331 331 330 326 327 327
309 309 311 314 314 314 315 316 317 318 327 332 334 339 340 340 339 338 337 335 334 334 336 337 337 336 337 336 334 332 336 335 329 326 327 328 325 321 324 325 326 327 326 328 330 331 331 330 328 325 320 315 313 311 310 308 304 305 306 304 301 297 298 299 298 301 303 306 305 314 314 316 320 324 328 330 331 331 331 332 334 334 334 333 329
307 309 311 312 313 313 314 315 317 317 319 329 330 329 337 338 338 338 337 335 334 335 335 334 333 333 334 333 333 332 334 334 331 330 329 328 327 328 327 328 329 327 324 326 324 325 320 317 315 315 315 315 313 312 312 311 309 307 308 308 308 303 301 300 300 299 300 302 306 315 314 315 317 319 323 325 325 326 326 327 330 332 333 333 334
309 309 310 311 312 313 313 314 316 317 317 323 330 331 331 331 333 336 336 334 335 334 334 334 332 333 333 331 330 331 332 333 331 329 329 330 329 327 328 329 329 328 327 328 327 325 317 316 315 314 315 315 313 312 309 310 310 309 308 308 309 306 306 302 301 303 300 301 304 315 315 314 314 318 319 319 320 321 321 322 324 327 330 331 332
307 309 311 312 312 312 313 314 315 317 317 320 329 330 331 331 331 333 335 335 335 334 332 331 331 331 331 330 330 329 328 330 330 330 330 330 329 328 329 329 328 328 328 328 325 324 320 316 315 314 313 314 311 310 310 308 308 309 307 308 308 306 305 305 303 304 301 300 306 313 316 314 313 315 317 319 320 320 320 320 321 323 324 327 329
308 309 311 312 310 310 312 317 319 319 316 320 329 329 329 328 327 328 329 328 329 328 327 327 326 327 327 329 329 330 329 328 328 329 330 329 328 329 329 329 328 328 328 327 325 321 321 318 315 314 315 312 312 310 310 309 308 308 309 307 307 307 304 303 303 304 303 301 300 308 313 314 314 315 315 318 319 320 321 322 322 322 324 324 325
307 308 309 310 310 311 315 317 319 323 324 326 326 326 325 325 325 325 325 323 324 323 322 322 322 323 324 325 326 327 328 328 327 328 329 327 328 328 327 326 325 324 324 323 323 322 321 319 317 315 312 311 311 312 310 309 307 308 309 307 306 306 305 304 303 303 303 301 299 302 312 314 314 314 316 318 319 319 320 319 320 322 323 323 323
307 307 308 309 311 313 315 315 320 322 322 323 322 322 322 321 321 321 321 320 319 318 318 317 317 318 320 322 322 324 324 325 324 324 323 321 321 321 322 322 322 322 323 322 321 321 320 319 317 315 313 310 313 312 311 311 309 308 307 308 307 306 304 304 303 304 303 303 302 301 309 311 313 314 314 316 318 318 318 318 319 322 322 322 322
307 306 307 309 311 312 312 314 319 320 319 318 317 317 317 316 316 316 316 316 316 315 314 313 313 313 315 319 320 320 321 322 322 321 320 319 319 319 319 320 320 321 321 321 321 321 320 318 317 314 313 312 311 311 311 312 310 310 307 309 308 307 307 306 304 305 305 304 303 302 303 308 313 313 313 315 315 317 318 319 320 320 319 320 320
305 305 307 309 311 311 311 311 314 315 315 314 313 312 311 311 311 311 310 311 311 311 311 310 310 310 311 313 317 318 318 317 317 317 318 317 316 315 315 315 316 317 319 319 317 316 315 314 316 314 311 309 306 307 309 308 308 308 308 307 307 307 305 306 305 304 303 302 300 300 300 301 306 310 313 312 314 316 317 318 318 318 320 321 320
305 306 307 308 308 309 309 310 311 311 311 310 309 309 308 308 307 307 307 308 307 307 307 308 308 309 309 310 311 316 316 316 315 315 313 314 313 313 312 312 313 315 316 314 312 311 309 309 310 308 306 305 303 302 303 302 303 304 305 306 306 305 305 304 302 301 301 300 299 299 298 299 299 304 309 311 311 313 315 316 316 316 318 320 321
304 305 307 306 307 308 309 309 309 308 307 308 308 306 306 305 306 305 305 305 305 305 305 305 306 307 308 308 309 310 313 314 313 313 313 312 311 311 311 310 311 312 313 312 309 308 306 303 304 304 303 301 299 299 299 298 299 300 302 303 304 303 302 301 300 299 299 298 298 298 298 298 298 298 299 304 308 309 311 313 313 314 315 317 319
304 305 306 306 305 306 307 306 307 306 305 305 305 304 304 304 303 303 303 303 302 302 303 304 304 304 305 306 307 307 308 309 310 310 310 310 309 309 309 309 309 309 308 309 309 305 301 300 300 300 298 298 297 297 296 296 296 298 300 301 302 301 300 299 299 299 299 298 298 297 297 297 297 298 298 297 301 306 308 309 310 312 314 315 317
304 305 305 305 304 304 305 305 304 303 303 304 304 302 302 301 302 302 301 301 301 300 300 301 301 302 303 303 305 306 306 306 306 306 305 305 304 304 306 306 306 306 305 306 305 302 298 297 297 297 295 294 294 294 294 294 295 297 298 300 299 299 297 297 298 299 298 297 297 297 296 297 297 297 299 297 297 299 305 306 306 307 309 311 314
304 305 305 304 303 303 303 304 304 303 303 302 301 300 300 299 299 299 299 299 299 298 299 299 299 299 299 300 302 303 304 304 304 304 303 302 302 301 301 302 302 302 302 301 302 302 299 296 295 295 294 291 291 291 292 293 295 296 297 297 298 298 297 297 297 297 298 296 295 294 293 294 296 299 295 296 296 295 300 303 304 305 304 307 310
305 305 305 303 302 303 302 302 302 302 301 301 301 300 299 298 298 297 297 296 296 297 297 297 296 296 297 298 299 300 301 302 302 302 300 299 298 297 297 298 298 298 297 297 297 299 299 296 293 292 291 290 289 289 290 292 294 296 298 296 296 296 296 297 297 297 296 296 294 293 291 291 292 293 294 294 295 294 293 296 300 300 301 303 306
304 305 305 304 303 302 302 301 300 300 299 299 299 298 298 297 297 296 295 295 295 295 295 295 295 295 296 296 297 298 298 298 298 297 295 294 293 293 293 294 294 294 293 293 293 295 296 296 293 291 290 289 288 288 289 292 293 296 295 292 292 291 292 294 296 296 295 296 295 294 292 290 290 291 293 293 293 293 291 291 291 291 292 300 304
303 304 304 304 303 302 302 302 301 301 300 300 299 298 297 296 295 295 294 294 293 294 294 294 294 294 295 295 295 296 296 296 295 295 294 294 293 293 293 293 293 292 291 291 290 290 291 292 293 291 288 288 289 288 289 291 293 295 294 292 291 291 291 292 292 293 295 295 294 292 290 289 288 289 290 293 292 293 290 290 290 290 290 294 300
303 302 302 302 302 302 302 300 301 301 299 298 297 296 294 294 293 292 291 292 292 292 292 292 292 293 293 293 293 293 294 294 294 294 293 293 292 292 291 291 292 291 290 289 289 289 289 289 289 290 288 287 287 287 287 289 291 291 291 293 293 291 291 291 291 289 292 293 293 291 289 288 287 287 288 291 290 291 291 289 289 289 289 290 291
301 302 300 300 300 300 299 298 298 298 298 297 296 295 295 294 293 292 292 292 291 290 290 291 291 292 291 292 292 292 292 292 292 292 291 291 290 290 289 289 289 289 288 288 288 289 287 287 287 286 287 286 285 286 287 286 285 285 287 290 290 290 289 290 290 290 288 290 290 291 288 287 286 286 288 290 289 288 291 288 288 288 288 289 289
301 301 300 299 299 297 297 297 297 297 297 296 295 294 294 294 293 291 291 290 291 291 290 290 290 290 290 290 290 290 289 289 289 290 289 289 288 288 287 287 287 288 287 287 287 286 286 286 286 285 284 285 285 287 286 286 283 284 286 285 284 283 286 286 288 288 287 289 286 288 289 286 286 286 286 289 287 287 289 289 288 288 288 288 289
299 300 299 298 297 297 296 296 295 296 296 295 294 294 293 292 292 291 290 289 288 290 289 289 289 288 287 288 288 288 288 288 288 288 288 287 287 286 287 287 286 287 286 285 285 285 285 285 285 286 284 283 283 284 286 285 285 283 280 283 283 280 278 280 283 286 286 286 285 286 287 286 286 286 286 287 285 286 288 288 287 287 287 288 289
298 299 299 298 297 296 295 295 295 294 294 294 293 292 291 290 289 289 288 287 287 286 286 286 286 287 287 286 287 287 288 287 287 287 287 287 287 286 286 286 286 286 286 285 285 284 285 285 284 284 284 283 282 282 284 285 285 286 285 279 279 278 279 280 282 282 284 284 284 285 286 284 285 286 286 286 285 286 287 287 287 287 287 288 288
296 298 298 298 296 295 295 295 294 293 293 292 292 290 289 288 287 285 284 284 283 283 283 283 284 285 285 286 286 287 287 287 287 287 287 287 286 286 286 285 285 285 285 285 284 285 284 284 284 284 284 283 283 282 281 284 285 285 285 284 283 279 278 279 278 276 282 285 284 285 284 283 284 285 287 286 286 286 286 286 286 286 287 287 288
295 297 297 297 297 296 296 295 294 294 294 292 291 290 288 287 286 285 284 284 283 283 284 284 285 285 286 285 286 286 286 286 286 286 286 286 286 286 285 285 285 285 285 285 284 284 284 284 285 285 284 285 284 282 282 282 283 285 285 285 284 283 282 279 276 278 275 279 283 283 283 283 283 283 284 284 285 285 285 285 285 285 286 287 287
294 295 295 295 295 295 295 295 294 294 294 291 289 289 288 287 286 285 285 284 284 284 284 284 285 285 285 285 285 285 285 285 285 285 285 285 285 284 284 285 285 285 285 284 284 284 284 285 285 285 285 284 283 283 282 283 282 283 285 284 284 284 283 282 281 278 277 276 277 282 282 282 281 281 283 282 283 283 283 284 284 285 286 287 287
293 293 293 293 293 293 293 292 291 290 290 290 289 288 288 287 286 286 285 285 285 285 285 286 285 285 284 284 284 284 284 284 284 284 284 284 284 284 284 284 284 284 284 284 284 284 283 283 283 283 283 283 283 283 282 281 282 282 282 282 282 281 280 281 280 279 278 276 275 277 277 280 280 280 281 281 282 282 283 283 284 284 285 285 285
292 291 291 292 291 291 291 291 289 289 289 289 288 288 287 287 286 286 285 285 285 285 285 284 284 283 283 283 282 283 282 283 283 283 283 283 283 283 283 283 283 283 284 283 283 283 283 282 282 282 283 282 282 283 282 280 281 280 280 280 279 278 277 278 277 278 276 277 276 276 277 277 276 278 280 280 281 282 282 282 282 282 283 283 284
290 290 290 290 290 290 290 289 288 288 288 288 288 287 287 286 286 286 285 285 285 285 284 283 283 283 282 282 282 282 282 282 282 282 282 282 283 283 282 282 283 283 283 283 282 282 282 282 281 281 281 281 281 280 281 281 280 280 279 279 278 279 279 278 277 277 276 275 276 276 276 277 277 277 279 280 281 281 281 281 281 281 282 282 282
Wind_Speed
4 9 5 7 7 10 11 12 13 13 13 13 13 13 13 12 12 11 11 10 12 12 11 12 12 12 12 12 12 12 12 12 13 14 14 13 15 15 16 16 16 16 17 17 17 17 17 17 17 17 17 17 16 16 15 15 15 14 13 13 13 13 12 11 10 10 11 13 15 15 16 16 16 17 18 18 18 19 17 16 14 10 8 11 15
6 6 6 5 7 10 11 12 12 13 13 13 13 13 12 12 12 11 10 10 12 12 12 12 12 12 12 12 12 12 12 13 14 14 13 14 14 15 16 16 17 17 17 17 18 18 17 17 17 17 16 16 16 15 15 15 14 14 13 13 12 12 11 11 9 9 9 10 9 12 14 16 16 16 16 17 18 18 17 16 16 9 6 15 17
7 6 5 6 7 9 9 10 12 13 13 13 12 12 12 12 11 10 10 10 11 12 12 11 12 12 11 11 11 11 12 12 14 14 14 14 15 14 15 16 16 16 16 17 18 18 17 17 16 16 16 15 15 15 15 14 14 13 13 12 12 12 12 12 11 10 8 8 8 8 11 14 15 15 15 17 17 17 17 17 16 14 10 17 16
8 5 5 7 7 8 10 9 11 11 12 12 12 11 11 11 11 10 10 10 10 10 10 11 11 10 10 11 11 12 12 13 13 13 14 14 15 14 14 14 15 15 15 16 17 16 16 16 16 15 15 15 14 14 14 13 13 13 12 12 11 11 11 11 12 12 13 10 8 7 5 5 8 14 15 17 18 18 16 17 18 18 18 17 18
8 6 5 5 5 8 10 9 12 11 12 12 12 12 11 11 10 10 10 10 10 10 10 10 11 10 10 11 10 11 12 13 13 13 13 14 14 14 13 13 14 14 15 15 15 16 16 15 15 15 15 14 14 13 13 12 12 12 12 11 11 11 10 11 12 12 12 11 10 7 5 6 6 13 16 17 19 18 17 17 17 18 17 17 17
7 7 5 5 5 7 10 10 11 12 12 13 12 12 12 11 11 10 10 10 10 10 10 10 10 9 9 10 10 11 11 12 13 13 13 13 14 14 13 13 13 14 14 15 15 15 15 14 14 14 14 14 13 13 12 12 12 11 11 11 11 11 10 11 11 11 10 9 10 6 6 6 6 7 17 17 17 16 17 18 18 17 16 17 17
9 6 6 6 5 6 9 10 12 12 12 12 13 12 11 11 11 10 10 11 10 9 9 10 9 8 8 9 10 10 11 12 12 13 14 14 14 13 13 13 13 14 14 15 15 15 14 14 14 14 14 13 13 13 12 12 11 11 11 10 10 10 10 10 10 10 8 5 6 5 6 6 5 5 17 15 15 16 16 16 16 16 16 16 17
7 7 7 7 5 7 10 10 11 11 12 12 12 12 11 11 9 9 10 10 10 9 9 9 8 8 7 8 9 9 10 11 12 13 13 13 14 14 14 13 14 14 14 14 14 14 13 13 13 13 13 13 13 12 12 12 12 11 10 10 10 10 9 9 9 8 9 5 5 5 5 5 5 5 15 15 15 16 15 14 13 15 16 16 14
8 7 8 7 7 11 9 9 11 12 13 12 12 10 11 10 8 8 9 10 10 10 9 8 8 7 7 7 8 8 9 10 12 13 14 14 14 14 13 13 13 14 14 14 13 13 12 12 13 13 13 13 13 12 12 12 12 12 11 11 11 11 11 10 9 8 6 6 6 5 6 6 5 5 12 15 15 16 15 12 10 13 14 15 14
8 7 7 8 7 13 12 10 12 12 13 12 11 10 10 9 7 9 10 9 10 10 9 8 7 6 6 7 7 8 9 11 12 13 14 14 14 14 13 13 13 13 13 13 12 12 12 12 13 13 13 13 13 13 12 13 13 13 13 13 13 13 13 12 10 6 5 7 6 5 6 8 5 4 10 14 15 15 14 14 10 10 10 13 14
5 7 5 7 9 12 12 12 11 11 12 13 12 12 11 9 7 9 10 10 9 9 9 7 6 6 6 5 6 7 10 11 13 13 13 14 14 14 14 14 14 13 12 12 12 12 12 13 13 13 13 13 13 12 13 13 13 13 13 14 14 14 14 12 8 5 7 7 7 5 5 9 5 4 12 13 13 14 14 13 11 12 13 13 13
7 6 5 6 9 12 11 11 11 12 11 12 12 12 11 12 9 9 9 10 9 9 9 7 6 6 5 4 5 5 7 11 13 13 13 14 14 14 14 13 12 12 12 11 11 12 12 12 12 12 12 12 12 12 12 12 12 13 13 14 14 15 13 11 6 6 7 7 7 6 6 5 4 8 13 13 13 13 14 13 12 14 13 13 12
5 6 6 6 6 9 11 10 11 12 11 12 13 13 12 11 9 9 9 9 9 9 9 7 7 7 6 6 7 6 6 8 10 13 13 13 13 13 13 13 13 12 12 12 12 12 12 12 12 12 12 12 12 12 12 12 12 13 13 14 15 15 13 10 6 8 7 7 6 7 7 5 5 12 13 13 12 13 13 12 12 13 12 13 13
5 5 5 5 5 8 10 10 9 11 10 11 12 11 12 12 10 9 9 8 8 9 9 8 7 9 7 7 8 8 8 10 9 11 13 13 13 12 13 12 12 12 12 12 12 12 12 13 12 12 12 11 12 12 12 11 12 12 12 13 14 14 13 8 7 7 7 7 7 7 7 5 5 12 13 13 13 13 12 11 12 12 12 13 13
6 4 5 5 5 5 9 9 9 9 8 8 9 9 10 9 9 8 8 7 7 8 8 7 7 8 8 8 8 9 10 10 9 11 12 12 12 13 13 12 12 12 12 13 13 13 13 13 13 12 12 11 11 11 11 11 11 11 12 13 13 11 12 6 6 6 7 7 6 7 6 4 10 11 10 12 12 12 11 11 12 11 12 13 12
5 4 4 3 4 4 5 7 9 8 8 8 7 7 9 7 8 8 8 7 7 8 8 8 8 8 8 8 9 11 11 9 9 11 12 12 12 13 13 12 12 12 12 13 13 13 12 12 13 13 12 12 11 11 11 11 11 11 12 12 11 11 12 7 6 7 6 6 6 6 6 5 10 10 10 13 12 11 10 10 11 11 11 12 12
6 6 5 3 2 3 4 4 7 10 7 7 8 7 7 6 6 7 6 6 7 8 7 9 10 10 9 9 9 11 10 9 10 9 9 10 13 13 12 13 13 12 13 13 12 12 11 11 12 13 13 13 12 12 11 11 11 11 12 11 11 10 12 9 7 6 6 6 6 6 6 5 8 10 10 11 11 10 9 9 10 11 11 12 12
6 6 6 4 3 2 2 3 5 5 3 4 7 9 6 5 5 6 5 6 6 6 6 8 10 10 9 9 11 11 10 8 9 8 7 9 12 11 11 12 12 12 12 13 12 10 10 10 11 12 13 13 13 12 12 11 12 12 12 11 10 11 12 11 6 6 6 6 6 5 6 9 10 8 10 11 11 10 9 10 10 9 11 10 10
6 6 6 6 5 4 1 1 4 5 4 2 2 6 8 7 6 5 3 5 6 6 6 6 7 8 10 10 11 12 10 9 8 8 8 8 10 10 10 10 12 13 12 12 10 9 9 10 10 10 11 12 13 13 12 11 12 12 12 10 11 11 12 8 5 6 6 6 5 5 6 12 11 8 11 10 10 10 10 9 8 8 10 9 8
6 7 6 5 4 4 4 2 1 4 4 4 4 5 7 8 7 6 6 5 4 6 9 7 7 7 8 10 11 10 10 8 10 8 9 7 8 7 10 11 12 13 12 11 9 8 9 9 9 9 9 10 10 10 10 11 12 12 10 9 11 10 7 6 5 6 6 5 5 6 8 12 13 11 10 9 9 10 9 9 10 11 9 8 7
6 7 7 8 8 7 6 4 2 1 3 4 5 5 7 9 7 7 7 6 4 6 9 9 7 6 6 6 8 6 4 5 7 5 7 5 7 7 9 10 11 12 11 10 8 7 7 8 8 8 8 8 7 7 7 8 9 10 9 9 9 7 6 6 5 5 5 5 5 5 10 10 12 9 11 7 9 9 7 7 8 9 9 8 6
7 7 7 8 8 8 7 7 6 3 2 1 3 5 5 6 6 5 4 6 4 6 6 6 5 5 6 5 5 5 5 4 4 5 5 5 4 4 5 10 11 11 10 9 8 6 7 7 7 7 7 4 4 4 4 6 8 8 8 8 7 5 5 6 5 5 4 4 4 6 11 10 10 9 11 9 9 8 6 7 8 7 7 6 5
8 7 7 8 7 7 8 8 7 8 5 4 1 5 7 5 5 6 5 5 6 6 4 5 4 4 4 4 4 5 6 6 5 6 5 6 4 4 5 9 10 11 9 8 7 6 5 6 7 6 6 5 4 4 4 5 5 8 8 6 5 5 5 5 4 4 3 3 3 8 10 10 10 10 11 12 8 7 9 9 9 8 4 5 6
5 4 5 6 8 8 8 7 6 8 6 4 3 1 6 5 5 5 4 4 5 4 4 4 4 5 5 3 2 3 5 5 6 10 8 5 5 5 5 7 10 10 9 5 5 5 4 4 5 5 6 5 5 5 5 5 5 5 6 6 6 5 5 5 5 4 3 3 4 9 10 11 10 10 10 11 10 11 12 12 12 12 12 11 7
3 3 5 6 7 7 8 9 8 6 6 6 3 1 3 5 5 5 5 4 3 3 2 1 2 2 2 1 2 1 5 4 4 5 5 5 5 4 4 4 4 5 6 3 3 3 3 1 2 3 4 6 5 4 5 5 4 4 5 5 5 5 5 6 5 5 4 5 4 9 10 12 12 11 10 10 11 11 12 12 12 14 13 11 11
6 7 5 6 6 6 6 7 8 6 5 5 4 5 1 3 3 4 5 3 4 5 4 3 2 4 2 2 2 4 3 4 3 3 4 5 5 5 5 5 5 4 3 4 4 3 2 1 2 3 4 6 5 4 4 4 4 4 4 4 5 4 5 5 5 5 4 3 4 9 9 12 13 13 13 12 12 12 12 12 12 12 12 13 13
5 5 6 4 5 5 7 8 7 7 6 4 4 5 6 6 6 5 5 4 5 5 7 6 7 7 6 4 2 2 3 3 3 2 3 3 4 5 5 5 4 4 3 4 2 3 2 3 3 2 2 4 4 4 4 3 4 4 3 4 4 3 4 4 4 5 4 3 4 8 8 11 14 14 14 13 13 13 13 13 13 12 12 12 13
4 5 5 5 5 7 7 6 6 6 4 4 6 7 6 7 7 8 8 8 9 7 6 6 7 7 7 6 5 2 3 3 2 2 2 4 2 3 4 4 5 5 4 3 3 2 2 3 2 1 3 3 3 2 3 3 4 4 4 4 4 3 3 3 4 4 5 5 3 5 6 9 12 14 15 15 15 15 15 14 14 13 14 13 13
6 5 5 5 6 6 6 7 6 6 4 6 8 6 6 7 8 8 8 7 8 7 7 7 7 7 7 7 6 6 5 5 5 3 4 4 4 3 3 4 4 4 3 3 4 4 3 5 3 4 2 2 4 4 4 2 3 3 5 4 4 4 4 3 3 4 4 4 3 3 7 7 11 14 16 17 17 16 17 17 16 15 15 15 14
5 5 5 5 6 6 7 8 7 6 6 8 7 8 6 9 8 8 7 8 8 7 8 8 7 8 8 8 8 7 6 6 6 6 7 6 5 3 5 5 5 4 4 5 4 5 5 5 5 5 3 3 5 5 6 4 3 3 4 4 4 4 3 3 3 4 4 4 6 6 8 9 11 12 15 16 17 18 18 17 16 16 17 17 16
5 5 5 5 5 5 7 8 8 7 7 9 8 8 7 9 9 8 8 8 7 8 7 7 8 8 7 8 8 8 7 7 7 7 6 7 6 5 7 6 6 5 5 6 5 5 5 5 5 6 6 6 7 7 7 6 5 5 4 6 5 5 5 6 5 5 7 8 7 7 8 13 13 12 14 15 17 18 18 17 17 17 17 17 16
4 5 4 3 5 6 6 7 7 6 9 9 9 9 8 8 8 9 8 7 7 7 8 9 8 7 8 8 8 8 8 8 8 8 7 7 7 7 7 8 7 6 6 7 8 7 6 6 8 7 5 6 7 7 6 6 6 6 6 6 5 6 7 7 6 6 7 7 7 7 7 8 13 14 14 17 18 18 18 18 18 19 19 18 17
2 3 4 5 6 6 6 7 7 7 9 9 9 8 7 8 8 9 8 6 8 8 9 8 7 7 8 8 8 9 8 8 8 9 8 7 7 8 9 9 7 6 7 9 10 8 9 8 8 7 8 8 9 8 6 6 6 6 6 6 6 7 7 6 7 8 7 7 7 7 7 7 8 11 12 13 17 20 20 19 19 20 19 19 18
2 3 4 7 4 4 4 5 7 8 9 8 8 8 7 8 7 9 8 8 8 8 8 7 7 8 8 9 8 8 7 7 8 9 8 8 8 9 9 9 8 8 8 8 9 9 9 10 7 7 7 9 7 7 7 7 6 6 6 5 6 6 6 7 7 7 7 7 7 7 7 7 7 7 7 12 13 20 21 20 20 20 20 19 19
3 4 6 5 6 6 4 5 6 8 10 10 9 10 9 6 7 9 9 8 8 9 7 7 8 7 8 8 8 8 8 8 8 8 8 8 8 9 9 8 8 9 9 7 9 9 10 10 8 8 8 8 7 6 6 5 5 6 6 6 6 5 6 6 6 7 7 6 7 7 7 7 7 7 7 7 10 16 21 21 21 22 21 20 19
4 5 5 6 7 6 7 8 8 9 11 9 9 10 9 9 8 9 9 8 9 9 7 7 7 7 8 8 8 9 9 8 8 7 8 8 8 9 8 7 9 8 7 8 8 10 10 10 9 9 8 8 7 7 6 6 6 6 6 6 6 6 7 7 7 7 7 8 8 8 8 8 8 7 8 7 7 11 18 19 21 22 22 21 21
4 5 6 7 7 7 7 9 9 11 11 10 10 10 12 11 10 10 10 9 9 8 8 7 8 8 7 7 8 9 10 10 10 9 9 9 8 9 8 8 8 9 9 9 9 7 8 8 10 9 7 5 8 7 7 6 7 5 5 5 7 8 7 7 7 6 7 9 8 9 9 8 8 8 7 7 7 7 11 17 18 20 20 21 21
5 5 6 7 7 6 6 8 8 8 9 9 10 10 10 10 9 9 9 10 9 8 7 8 8 7 7 8 9 9 9 10 10 10 10 10 9 9 9 9 8 9 9 9 8 7 7 9 9 7 7 8 8 7 7 6 5 5 7 8 8 8 8 8 7 6 7 8 8 9 8 8 8 8 8 7 6 7 7 11 14 15 15 19 21
4 5 6 6 7 8 8 8 9 9 10 10 10 12 12 11 9 10 10 10 8 8 7 8 7 7 8 8 9 9 9 10 10 10 9 9 9 9 9 8 8 8 9 10 9 8 8 8 8 7 6 7 6 6 5 4 5 7 8 9 8 9 9 9 8 7 7 7 8 7 8 9 8 8 8 7 6 7 8 8 9 9 10 15 18
3 5 6 7 8 8 7 7 6 7 7 7 7 9 8 8 10 9 11 9 8 8 8 8 8 9 8 9 9 9 9 9 11 11 11 10 9 9 10 9 9 9 11 11 9 8 8 7 8 7 7 7 9 9 8 6 7 7 7 8 8 9 10 9 10 8 7 7 7 8 8 8 9 8 8 7 7 6 7 7 7 9 9 11 15
3 4 5 5 6 7 8 8 5 5 5 7 7 7 8 9 9 9 10 7 8 8 9 8 9 8 9 9 9 8 9 9 9 9 9 9 9 9 9 9 9 10 10 9 8 9 7 6 4 5 9 11 12 11 9 3 6 5 3 4 5 5 8 9 9 9 8 6 6 8 7 9 8 8 8 7 7 7 6 7 8 8 9 9 9
4 5 5 5 5 5 6 6 6 6 6 6 6 6 5 6 9 8 9 7 7 8 9 8 8 8 10 9 9 9 10 9 9 9 9 9 9 9 9 9 8 9 9 8 9 9 10 8 4 7 6 9 9 9 11 5 6 2 2 2 5 3 4 8 9 6 7 6 5 7 7 8 10 8 8 7 8 8 6 7 8 8 8 8 8
5 4 4 6 5 6 5 6 6 6 6 7 7 8 7 7 8 8 9 10 8 8 9 8 8 10 9 9 9 9 9 9 8 8 9 8 9 9 8 8 8 7 10 11 10 10 8 8 7 5 6 6 7 8 10 8 3 1 0 4 3 4 5 7 5 4 7 6 6 8 8 10 12 8 6 7 8 8 7 7 9 9 8 8 8
5 5 4 6 5 5 6 6 6 6 7 6 9 9 10 11 10 10 9 9 9 8 10 8 9 10 11 8 8 7 8 9 8 8 8 9 8 9 7 9 9 8 9 9 9 9 8 8 8 7 4 8 6 8 8 10 8 3 4 2 0 2 4 5 8 5 3 4 8 9 6 8 9 8 7 7 8 7 7 9 10 8 8 8 8
4 4 4 4 6 6 7 7 7 7 7 8 10 11 12 11 12 10 10 11 7 7 9 9 7 7 9 9 8 7 8 9 8 8 8 9 8 9 9 9 9 8 7 8 8 7 6 6 7 7 7 6 7 5 8 8 10 8 3 3 4 5 0 4 4 5 7 7 6 6 6 8 8 8 5 7 7 7 8 9 9 8 8 8 8
4 4 3 5 7 7 8 7 7 7 8 8 9 8 9 11 10 10 9 9 8 7 8 8 7 8 8 5 8 8 8 8 8 9 9 9 10 9 8 9 8 7 7 7 7 7 8 8 7 6 8 6 7 7 7 6 7 8 8 5 3 3 1 3 5 5 5 3 4 5 5 6 7 7 5 7 6 8 8 8 8 8 8 8 8
3 5 5 6 7 8 8 7 8 7 7 7 5 6 7 6 7 8 8 9 11 6 5 5 7 6 6 8 7 8 8 10 9 9 8 8 8 8 8 7 7 7 6 7 8 7 7 6 6 8 7 6 7 9 8 5 5 8 8 7 6 4 2 4 3 3 5 3 2 4 3 5 6 5 6 6 6 8 8 7 8 7 8 8 8
4 5 5 5 7 8 8 7 5 7 6 5 5 5 8 7 9 9 8 8 9 10 7 7 6 7 9 8 8 8 9 8 8 8 7 7 7 7 7 7 8 7 7 7 7 6 7 7 7 7 7 7 7 7 7 6 6 4 6 8 7 5 5 6 4 2 3 7 6 1 0 5 5 4 5 5 7 8 9 8 7 7 7 7 8
4 5 5 6 6 6 7 7 7 6 6 7 8 6 8 8 9 10 10 7 9 8 7 6 8 7 10 7 8 7 7 8 7 7 7 7 6 7 7 7 8 7 6 7 7 7 8 8 8 8 8 7 6 5 7 6 6 5 4 6 6 5 4 4 4 4 2 3 5 8 11 3 1 2 5 3 6 8 8 7 6 6 5 7 7
4 4 4 6 6 5 8 8 7 6 7 8 9 8 7 8 9 9 13 10 8 7 6 8 7 7 9 7 6 7 6 6 7 6 7 6 7 6 7 7 7 6 7 7 7 8 7 8 7 6 6 8 6 6 6 5 5 5 5 3 5 4 4 3 3 4 2 1 3 9 8 14 14 5 3 3 6 8 7 6 6 5 6 7 6
4 5 5 6 6 6 8 8 6 7 7 9 10 9 6 6 9 9 11 12 9 9 10 8 7 7 8 7 7 6 5 6 6 6 6 5 6 6 7 6 6 6 7 7 6 6 6 6 6 7 7 7 6 6 6 5 5 5 5 5 5 5 3 3 3 4 3 2 4 4 6 5 7 14 4 7 7 6 6 6 4 5 6 6 6
Wind_Direction
185 148 153 160 156 143 146 142 136 132 129 124 120 116 113 110 106 104 101 101 92 91 93 93 92 91 85 84 89 97 95 93 89 85 84 85 82 79 78 77 75 71 69 64 60 55 52 50 48 45 43 41 40 39 38 37 37 38 39 38 35 30 24 30 37 36 38 40 44 48 54 54 57 60 59 59 54 51 52 53 48 43 42 48 51
165 152 144 148 151 143 149 144 138 135 130 128 123 119 115 112 110 107 106 102 101 97 99 92 86 81 83 83 86 94 100 99 96 91 90 87 84 83 81 78 74 71 68 64 60 55 51 48 45 42 39 37 35 35 35 36 35 34 35 37 34 28 18 12 23 41 39 30 23 40 55 60 59 58 62 61 58 55 49 50 53 53 38 51 54
136 135 147 139 139 148 147 147 141 137 133 128 124 120 117 115 114 112 108 104 103 109 103 97 87 85 85 84 85 90 96 101 99 97 93 90 86 82 81 79 74 69 66 64 60 56 51 47 43 41 38 35 33 33 33 34 34 33 33 34 35 28 15 3 6 17 43 40 39 47 57 63 59 60 61 63 61 56 51 49 48 51 47 49 52
128 141 136 128 115 145 143 152 140 133 133 128 124 121 119 117 116 114 110 106 104 100 99 94 88 90 93 91 87 87 93 96 94 94 91 89 85 81 77 77 75 71 68 64 59 54 49 46 43 41 39 36 35 33 33 33 33 33 34 35 34 28 16 1 2 4 14 35 61 66 45 53 55 60 60 64 61 55 49 47 44 45 42 38 44
134 138 131 124 120 142 143 147 145 142 133 133 129 127 124 120 116 114 112 110 106 102 102 98 94 95 93 92 89 92 96 98 98 97 94 92 89 86 84 82 78 74 70 66 61 53 47 44 41 39 36 35 36 35 34 34 34 35 35 36 33 27 16 6 0 3 17 21 75 59 44 44 45 54 59 58 54 51 49 47 44 43 41 38 39
138 140 134 122 124 137 141 150 147 145 139 137 134 131 128 123 120 118 115 111 109 108 104 99 96 94 99 95 96 97 97 101 104 98 94 89 89 90 89 83 77 74 70 65 61 55 49 44 41 39 36 34 35 34 34 34 35 36 37 37 31 24 16 10 2 2 21 29 70 64 56 54 51 50 56 56 54 50 46 47 47 42 40 38 35
142 140 136 129 126 134 140 150 153 144 144 142 137 134 129 128 125 123 119 117 112 108 104 102 100 99 95 98 99 97 102 106 105 101 96 94 93 91 89 87 82 75 70 66 59 54 50 44 41 39 38 36 35 33 33 34 34 34 36 35 28 24 20 12 5 358 16 54 78 72 63 57 53 54 61 59 57 52 48 46 49 49 48 43 36
138 147 145 136 132 140 141 150 149 147 142 146 138 133 134 133 130 124 123 120 120 115 110 106 104 99 103 97 99 103 105 109 108 104 100 97 88 81 75 75 80 76 69 65 60 56 52 47 43 42 42 40 36 34 33 33 31 31 32 30 25 26 23 10 5 354 9 69 82 77 69 62 53 51 62 60 58 55 51 46 50 51 50 48 43
149 156 146 140 141 140 146 143 149 152 146 142 138 137 137 133 134 128 128 127 124 120 116 111 106 107 107 106 106 107 107 107 107 107 103 94 88 82 78 76 72 68 65 66 62 59 54 50 46 45 46 43 38 37 35 33 31 29 27 25 26 25 14 6 359 10 37 81 83 81 77 70 60 56 60 60 59 57 54 47 43 47 47 46 46
154 152 149 141 148 146 147 148 149 148 147 142 144 140 136 140 136 133 135 131 128 125 119 116 112 105 103 102 107 111 110 108 106 105 101 94 90 85 82 79 73 69 70 71 70 66 57 53 50 49 49 44 41 39 38 36 34 31 29 28 23 17 9 4 5 17 47 76 84 80 84 79 60 57 60 59 59 59 58 47 51 57 47 43 43
102 144 139 137 143 144 148 146 147 148 147 148 148 145 140 136 138 144 138 134 135 129 124 122 111 106 96 98 126 124 120 117 115 112 105 100 93 89 85 79 78 78 76 71 68 65 59 55 54 53 50 47 43 42 42 39 37 35 36 27 21 14 8 5 14 30 59 70 65 54 59 73 78 61 60 54 53 56 57 51 46 54 49 46 42
107 111 122 122 133 138 143 144 143 141 151 148 153 146 144 148 161 149 143 142 144 136 127 120 116 103 97 116 95 110 120 126 123 116 109 104 103 100 96 92 89 85 80 75 69 65 61 58 58 59 57 52 48 46 43 40 39 38 33 27 21 15 7 2 17 41 58 62 60 49 40 37 53 60 56 51 50 53 52 49 49 51 53 53 51
85 109 115 123 118 129 136 140 139 141 151 158 158 149 158 160 156 147 148 152 150 141 128 121 119 109 98 101 116 116 113 106 122 117 109 105 102 95 92 94 93 90 82 75 68 63 58 56 57 59 60 58 54 49 46 42 40 38 33 29 22 16 10 8 21 47 54 54 48 38 36 31 37 49 48 48 47 51 47 48 54 54 56 53 52
82 94 106 111 110 119 130 132 138 142 151 160 158 158 162 160 157 149 152 155 152 146 133 124 119 114 113 115 123 123 120 118 125 116 111 109 103 98 96 94 92 86 80 74 69 63 57 54 52 54 55 58 58 54 50 46 42 38 33 28 22 17 14 19 34 56 57 50 42 39 32 20 44 49 43 43 49 52 49 51 56 56 55 53 51
78 91 112 111 115 106 116 133 142 134 144 156 158 160 156 160 156 152 151 150 151 151 138 128 121 117 118 122 127 125 122 124 131 119 116 115 112 105 103 98 91 86 80 75 70 64 59 54 50 48 49 51 55 56 54 48 44 37 33 28 21 17 21 25 35 52 54 46 36 37 28 1 45 45 54 53 51 52 55 58 57 54 55 55 52
61 82 100 109 117 122 106 118 121 127 141 142 146 151 157 163 158 157 154 153 151 155 142 127 125 122 126 131 130 132 132 131 130 131 124 120 114 112 109 103 97 92 87 81 75 70 65 59 54 48 47 46 47 50 52 49 43 36 29 24 19 18 24 31 40 57 54 45 34 28 13 357 32 33 42 53 54 55 58 59 62 55 54 57 52
38 59 86 95 98 106 125 121 110 104 115 144 142 146 164 163 160 160 154 156 156 151 146 133 128 131 130 130 127 119 116 123 126 122 121 119 120 120 117 111 106 101 95 90 82 78 74 72 64 58 52 46 44 44 44 45 41 34 28 23 19 18 27 34 54 57 54 48 43 23 6 351 30 27 40 53 56 56 54 52 59 60 55 57 56
40 53 55 58 71 126 149 140 112 99 91 102 139 142 159 170 169 166 163 163 154 143 143 135 136 131 128 128 126 125 128 125 120 103 110 124 124 123 121 116 112 106 99 94 90 85 83 79 75 68 63 56 49 46 44 42 37 30 25 24 22 28 31 40 58 60 57 48 34 24 10 0 23 16 45 53 53 53 48 48 52 58 61 54 55
39 42 42 41 36 41 95 159 138 153 162 161 124 156 162 161 173 156 185 169 153 134 125 107 117 127 129 130 133 135 136 139 121 116 113 118 133 134 128 120 115 108 104 99 96 94 89 86 84 77 67 63 57 51 48 41 36 33 31 26 30 31 32 39 55 64 56 48 31 24 6 9 357 28 47 41 48 46 36 48 52 53 53 49 46
43 33 26 20 27 38 33 49 145 165 174 181 176 163 167 167 170 167 161 173 149 137 119 115 125 130 129 134 136 140 142 142 133 136 137 139 141 142 137 128 118 110 109 108 106 102 96 95 93 88 74 62 59 56 42 39 36 34 31 29 29 31 30 38 49 56 52 42 36 17 12 12 9 39 34 56 51 45 36 37 38 38 36 47 45
30 28 28 12 7 12 5 30 20 319 224 195 175 175 174 167 173 168 163 157 144 125 123 124 121 121 119 128 133 134 141 141 140 149 149 143 156 151 143 131 119 117 118 120 123 112 103 98 96 93 88 69 44 32 40 35 31 32 29 33 32 33 33 45 51 57 54 38 27 12 16 13 14 30 23 43 50 38 30 33 47 37 32 35 39
27 13 18 18 10 5 360 358 355 5 18 266 189 167 162 172 164 161 170 161 143 119 134 135 139 132 128 143 148 143 145 151 150 150 155 151 155 164 148 131 124 124 124 134 136 120 108 99 93 93 86 81 36 24 4 25 29 37 32 27 31 30 38 49 54 57 56 40 29 15 18 16 12 21 19 24 61 48 39 25 41 24 17 17 24
23 14 7 17 8 352 357 352 347 340 350 15 38 143 156 162 168 169 168 167 154 149 150 147 150 146 152 171 173 161 156 166 163 160 165 163 146 119 165 135 129 126 133 143 140 134 112 103 95 90 85 79 53 51 41 38 31 31 30 20 20 19 29 43 55 60 69 60 37 29 25 18 11 9 16 23 56 43 26 21 15 3 360 358 0
21 24 8 10 7 0 344 336 341 334 336 354 14 181 157 172 167 167 168 169 170 162 168 159 154 159 155 191 188 169 160 167 168 160 154 155 131 137 129 130 125 125 135 136 144 129 99 63 76 79 83 79 64 52 52 49 36 34 29 22 21 15 29 19 44 45 36 38 37 39 27 23 14 7 10 16 20 13 9 7 6 12 21 5 347
11 5 28 16 2 353 342 333 333 328 334 327 6 321 202 176 166 163 163 157 150 133 108 109 137 105 122 106 38 149 158 158 161 158 153 151 148 145 132 125 125 132 139 144 139 111 75 48 56 85 99 96 80 69 67 54 46 40 34 19 22 18 24 23 26 40 16 12 24 36 28 20 15 10 8 8 9 7 5 3 357 360 8 12 10
12 29 8 7 355 339 339 322 320 315 318 311 311 322 277 148 155 149 137 131 119 84 63 15 85 67 83 105 76 42 83 135 144 152 154 149 155 152 143 138 144 151 156 159 144 125 111 171 134 126 116 110 113 105 104 98 76 61 44 29 28 22 24 22 19 32 16 17 9 29 24 18 14 11 11 9 11 8 6 4 359 357 357 359 5
22 24 8 352 336 341 332 325 317 308 303 305 320 18 47 55 66 68 90 78 74 76 64 51 49 48 36 28 95 139 100 117 116 151 158 176 171 148 150 140 152 162 174 150 147 121 160 141 173 155 124 102 107 115 108 94 103 85 62 45 36 26 28 31 24 19 27 17 18 27 19 19 16 13 12 12 13 13 13 11 6 2 360 358 3
41 26 10 336 344 337 327 324 323 322 292 324 48 62 50 61 62 69 61 65 69 64 64 58 56 46 38 27 28 66 118 125 114 147 159 119 134 165 131 127 141 176 176 156 151 147 147 164 128 96 75 72 94 81 91 104 91 93 72 46 40 23 20 32 30 31 35 15 22 13 18 19 17 18 18 17 16 17 17 16 15 11 9 8 6
42 27 353 350 341 337 333 343 345 1 17 63 69 63 58 63 61 63 62 58 65 57 58 51 46 43 39 33 24 44 37 57 67 44 74 75 81 89 91 85 78 54 71 68 111 124 95 64 56 60 53 69 81 65 74 48 68 80 80 54 41 27 13 23 35 35 37 40 27 359 13 13 18 22 21 23 24 25 22 20 17 16 15 12 11
34 18 6 348 342 339 357 355 10 34 53 68 67 62 54 66 58 61 64 62 61 57 55 54 45 42 36 34 35 37 38 43 52 50 62 52 44 59 70 62 64 40 68 75 70 79 85 83 70 64 50 29 50 43 55 54 41 37 50 47 23 27 25 30 32 39 39 35 31 16 13 11 17 20 21 27 29 26 22 20 21 20 18 17 14
28 19 5 354 338 358 8 10 32 43 63 68 66 61 56 66 64 64 58 60 62 62 57 60 51 45 37 38 43 39 41 41 52 56 61 61 45 32 51 37 43 36 46 68 53 54 56 61 60 54 47 42 29 23 36 53 37 31 22 35 10 23 16 14 35 34 34 29 38 39 34 33 31 25 27 38 32 26 26 26 25 24 21 19 16
23 17 1 344 15 17 17 11 31 44 73 74 73 69 62 58 66 68 59 57 63 65 62 54 52 49 43 43 46 50 51 50 52 51 46 51 58 44 40 42 22 23 38 56 56 47 42 38 44 48 52 52 38 30 25 40 32 22 22 28 24 30 19 33 40 47 44 41 39 40 38 33 32 33 39 38 31 28 29 29 30 26 23 20 18
36 13 16 30 30 25 31 27 34 45 70 74 77 76 70 65 60 71 68 59 65 66 63 56 58 52 49 48 51 57 59 62 60 63 57 51 56 58 53 47 32 25 48 58 59 50 43 37 36 37 36 42 35 20 16 31 28 11 22 18 24 28 36 51 45 49 48 46 41 37 37 36 35 33 31 29 25 29 29 30 29 25 21 19 18
39 29 44 46 40 40 46 52 48 58 63 68 78 78 65 74 67 74 67 62 60 67 62 61 58 56 51 45 50 54 62 69 71 69 70 66 58 57 59 54 43 33 34 43 58 54 52 42 26 32 32 38 33 18 17 11 0 10 19 4 27 42 53 52 53 58 59 51 45 43 37 38 37 36 31 26 22 29 31 30 28 24 21 19 18
62 55 57 56 54 49 51 61 48 66 69 69 73 79 75 69 72 72 71 68 67 67 62 60 61 57 55 50 46 53 57 60 65 73 73 68 62 57 49 48 55 50 48 46 59 55 57 50 31 30 29 28 22 22 15 2 6 9 3 9 44 52 51 57 54 59 58 56 50 38 33 33 30 32 30 29 28 26 28 29 28 24 21 19 18
61 67 73 70 63 61 67 76 70 80 73 72 78 84 81 70 71 74 74 68 70 67 61 55 60 58 56 55 48 54 52 50 56 61 70 68 70 67 61 49 52 60 49 44 54 58 58 55 43 37 32 20 14 12 359 9 13 7 5 15 46 49 45 44 51 58 55 56 46 40 36 32 29 26 29 31 30 26 23 23 23 21 17 15 17
67 69 81 87 80 71 73 84 83 84 87 86 85 84 84 78 76 76 72 69 68 68 63 60 58 57 53 56 45 53 53 53 54 57 65 59 62 65 56 53 54 59 57 53 52 51 63 60 49 39 39 26 24 10 4 11 6 4 6 33 44 46 42 45 49 59 60 59 52 45 40 34 30 28 28 33 29 28 20 21 20 15 11 9 11
66 72 84 92 91 82 76 89 88 87 97 94 88 85 82 86 80 78 75 71 66 65 64 64 62 57 58 58 52 53 56 57 58 62 65 61 59 62 59 50 54 60 61 60 58 53 55 57 55 39 34 35 32 18 3 1 9 18 53 55 47 45 35 35 45 53 62 61 53 48 39 32 30 23 20 26 30 24 24 18 18 12 5 4 7
73 84 95 104 96 92 91 88 99 105 101 98 101 95 91 87 83 79 74 71 68 64 63 64 60 60 58 58 59 57 54 60 61 60 68 67 64 57 57 54 59 63 62 58 50 46 49 48 53 38 36 45 40 27 16 5 33 69 71 63 58 48 42 38 34 37 46 57 56 46 39 31 27 24 14 15 22 23 23 20 15 12 360 356 2
79 90 94 101 100 103 104 100 95 106 107 107 107 98 96 92 91 84 75 67 69 69 62 65 63 62 57 58 59 62 63 64 66 67 67 64 63 61 61 53 56 61 61 57 49 44 43 45 39 37 30 36 37 24 22 26 69 69 70 66 59 58 50 45 39 32 32 35 45 43 38 27 25 20 14 8 15 18 20 16 15 8 357 352 354
67 76 91 90 103 114 115 107 111 104 107 109 96 101 106 100 84 83 88 80 77 79 72 63 64 62 61 61 60 61 61 66 65 71 74 77 73 68 66 58 57 62 65 65 59 54 48 47 46 41 40 39 27 18 13 21 63 47 22 53 65 59 63 54 43 34 28 31 35 43 31 30 18 21 10 7 11 9 13 13 10 3 357 349 348
71 71 80 77 84 91 98 95 85 80 79 82 95 88 78 93 107 99 98 86 82 78 81 69 70 67 62 62 64 62 63 63 63 68 69 71 74 70 66 64 62 67 74 70 60 53 47 41 27 54 33 54 45 16 10 33 28 71 36 355 358 357 66 61 43 19 27 31 32 42 32 28 16 12 6 8 6 1 3 6 2 358 351 345 345
108 91 97 96 81 84 87 92 89 94 91 93 98 100 99 93 101 103 100 96 73 80 84 83 78 75 64 60 58 59 62 63 59 61 69 67 71 72 68 68 63 65 67 58 53 51 45 44 38 63 55 39 58 27 29 42 58 343 33 74 358 11 329 11 29 28 17 17 26 40 26 25 7 0 3 9 3 359 359 356 354 350 343 342 338
119 114 112 111 101 95 95 93 91 92 97 91 97 94 95 98 89 99 90 90 105 93 87 77 74 72 64 57 52 55 59 63 57 61 67 64 65 70 71 64 60 56 67 70 57 54 44 42 43 41 56 70 38 37 25 25 39 44 31 77 248 92 352 352 336 317 336 27 28 29 31 23 358 353 3 9 359 360 355 347 345 341 340 335 335
123 126 128 121 117 117 110 108 107 107 107 115 113 116 110 100 102 93 96 92 75 85 85 67 64 72 75 56 50 53 58 62 59 60 65 67 65 64 66 64 64 56 62 69 66 60 56 52 48 56 44 78 60 47 29 30 38 30 107 58 13 30 78 272 319 295 1 352 19 24 26 24 356 349 359 5 355 357 349 342 336 337 335 334 330
118 131 131 120 122 119 116 112 110 113 115 115 117 116 118 125 126 120 110 102 91 79 84 98 82 71 75 78 61 53 60 64 59 61 61 63 63 63 66 70 67 64 63 72 71 63 52 53 42 60 57 39 91 60 42 16 46 46 47 63 105 139 289 296 51 320 350 274 47 10 23 24 346 342 358 360 356 352 340 334 329 330 331 331 327
116 128 130 125 124 122 119 124 123 121 122 120 110 113 101 100 108 107 112 115 113 87 96 91 94 89 85 73 69 57 53 62 55 54 56 59 65 63 67 71 72 70 67 70 65 63 59 55 48 55 53 51 50 69 53 8 15 31 30 45 59 68 79 66 16 294 333 324 21 8 7 14 342 333 4 348 355 343 332 328 325 329 334 333 332
123 115 118 117 123 124 123 119 118 122 123 113 97 105 112 112 108 104 104 106 106 118 111 101 92 94 82 72 68 58 53 52 60 56 57 60 66 67 69 70 71 64 68 66 69 63 64 54 56 58 61 56 57 72 68 39 62 13 17 29 22 33 62 81 73 73 270 312 316 317 127 6 336 315 0 342 352 335 324 320 325 336 337 340 345
126 128 128 123 116 111 109 107 109 112 113 114 109 99 108 114 114 117 106 101 110 112 112 100 95 88 85 71 70 65 61 56 56 64 59 62 62 68 66 67 67 64 65 70 65 63 63 63 54 53 57 56 57 66 74 58 54 50 31 19 22 21 12 50 56 16 358 304 289 342 328 344 314 289 343 340 342 324 315 310 324 338 341 347 347
129 121 120 118 117 116 109 110 110 112 119 114 113 111 112 118 117 122 120 123 120 112 104 102 94 92 90 84 79 74 70 68 60 59 66 61 67 66 67 67 69 67 64 66 65 61 56 60 59 62 59 65 50 59 73 72 72 65 70 67 57 9 19 5 19 10 327 51 334 322 335 336 339 330 308 344 335 317 310 311 339 342 350 342 338
128 126 126 125 127 121 118 111 119 118 119 120 120 120 116 122 126 129 128 129 127 122 117 106 109 101 104 99 96 94 84 81 79 68 68 73 74 71 73 73 71 73 71 67 66 72 68 69 66 64 61 63 57 60 59 58 65 61 54 62 72 80 74 47 348 4 47 336 325 296 317 320 305 314 326 338 323 300 297 316 333 348 349 327 343